Terug naar catalogus

FENGYUN 1C DEB

LostSSO
NORAD 38490·DEBRIS·🇨🇳 China

Gelanceerd May 10, 1999 vanaf Taiyuan Satellite Launch Center

Loading…

Volgende Passages (komende 24 uur)

TLE

VerouderdSource: Space-Track

Epoch: Jan 2, 2015, 10:42 UTC

1 38490U 99025ERZ 15002.44632846  .00001048  00000-0  67131-3 0  9998
2 38490  99.1386  78.7395 0050824  70.6028 290.0622 14.04970804222254

Volg FENGYUN 1C DEB in realtime met AllMySat

Download on the App Store